GW5184 Weather Reports


time (UTC)temp
C
wind
direction
speed
KPH
gust
KPH
rain 1hr
cm
rain 24hr
cm
rain mn
cm
humidity
%
barometer
mb
20260507170237 26 201 0.0 0.0 0.00 0.00 0.00 90 1008.0
20260507165732 26 201 0.0 0.0 0.00 0.00 0.00 90 1008.0
20260507165229 26 201 0.0 0.0 0.00 0.00 0.00 90 1008.1
20260507164725 26 201 0.0 0.0 0.00 0.00 0.00 90 1008.2
20260507164223 26 201 0.0 0.0 0.00 0.00 0.00 90 1008.0
20260507163719 26 201 0.0 0.0 0.00 0.00 0.00 90 1008.2
20260507163218 26 201 0.0 0.0 0.00 0.00 0.00 89 1008.2
20260507162713 26 201 0.0 0.0 0.00 0.00 0.00 89 1008.3
20260507162209 26 201 0.0 0.0 0.00 0.00 0.00 89 1008.3
20260507161706 26 192 0.0 0.0 0.00 0.00 0.00 89 1008.0
20260507161203 26 192 0.0 0.0 0.00 0.00 0.00 89 1008.1
20260507160658 26 192 0.0 0.0 0.00 0.00 0.00 89 1008.1
20260507160155 26 192 0.0 0.0 0.00 0.00 0.00 89 1007.9
20260507155651 26 192 0.0 0.0 0.00 0.00 0.00 89 1008.2
20260507155148 26 192 0.0 0.0 0.00 0.00 0.00 89 1008.3
20260507154644 26 192 0.0 0.0 0.00 0.00 0.00 89 1008.5
20260507154142 26 192 0.0 0.0 0.00 0.00 0.00 88 1008.5
20260507153638 26 192 0.0 0.0 0.00 0.00 0.00 89 1008.4
20260507153135 26 192 0.0 0.0 0.00 0.00 0.00 88 1008.3
20260507152631 26 192 0.0 0.0 0.00 0.00 0.00 89 1008.4
20260507152127 26 192 0.0 0.0 0.00 0.00 0.00 88 1008.2
20260507151623 26 192 0.0 0.0 0.00 0.00 0.00 88 1008.0
20260507151121 26 192 0.0 0.0 0.00 0.00 0.00 88 1008.1
20260507150618 27 192 0.0 0.0 0.00 0.00 0.00 88 1008.5
20260507150115 27 192 0.0 0.0 0.00 0.00 0.00 88 1008.3
20260507145615 27 192 0.0 0.0 0.00 0.00 0.00 88 1008.5
20260507145113 27 192 0.0 0.0 0.00 0.00 0.00 87 1008.5
20260507144613 27 192 0.0 0.0 0.00 0.00 0.00 87 1008.5
20260507144112 27 192 0.0 0.0 0.00 0.00 0.00 87 1008.5
20260507143608 27 192 0.0 0.0 0.00 0.00 0.00 87 1008.6
20260507143106 27 191 0.0 0.0 0.00 0.00 0.00 87 1008.5
20260507142601 27 191 0.0 0.0 0.00 0.00 0.00 87 1008.6
20260507142058 27 191 0.0 0.0 0.00 0.00 0.00 87 1008.4
20260507141554 27 191 0.0 0.0 0.00 0.00 0.00 88 1008.6
20260507141051 27 192 0.0 0.0 0.00 0.00 0.00 87 1008.4
20260507140548 27 192 0.0 0.0 0.00 0.00 0.00 88 1008.7
20260507140045 27 192 0.0 0.0 0.00 0.00 0.00 87 1008.5
20260507135542 27 192 0.0 0.0 0.00 0.00 0.00 87 1008.5
20260507135039 27 192 0.0 0.0 0.00 0.00 0.00 87 1008.6
20260507134536 27 192 0.0 0.0 0.00 0.00 0.00 86 1008.4
20260507134031 27 192 0.0 0.0 0.00 0.00 0.00 86 1008.1
20260507133528 27 192 0.0 0.0 0.00 0.00 0.00 86 1008.5
20260507133026 27 192 0.0 0.0 0.00 0.00 0.00 86 1008.2
20260507132522 27 191 0.0 0.0 0.00 0.00 0.00 85 1008.3
20260507132019 27 191 0.0 0.0 0.00 0.00 0.00 85 1008.1
20260507131516 27 190 0.0 0.0 0.00 0.00 0.00 85 1008.2
20260507131013 27 190 0.0 0.0 0.00 0.00 0.00 85 1008.4
20260507130510 27 190 0.0 0.0 0.00 0.00 0.00 85 1008.2
20260507130008 27 190 0.0 0.0 0.00 0.00 0.00 85 1008.0
20260507125506 27 190 0.0 0.0 0.00 0.00 0.00 84 1008.0
20260507125003 27 190 0.0 0.0 0.00 0.00 0.00 85 1008.1
20260507124459 27 190 0.0 0.0 0.00 0.00 0.00 85 1007.8
20260507123957 27 190 0.0 0.0 0.00 0.00 0.00 85 1008.1
20260507123455 27 190 0.0 0.0 0.00 0.00 0.00 84 1008.1
20260507122951 27 190 0.0 0.0 0.00 0.00 0.00 84 1008.1
20260507122446 27 190 0.0 0.0 0.00 0.00 0.00 84 1008.0
20260507121943 27 190 0.0 0.0 0.00 0.00 0.00 84 1007.8
20260507121438 27 191 0.0 0.0 0.00 0.00 0.00 84 1007.9
20260507120935 27 191 0.0 0.0 0.00 0.00 0.00 83 1008.0
20260507120431 27 190 0.0 0.0 0.00 0.00 0.00 84 1007.8
20260507115928 27 188 0.0 0.0 0.00 0.00 0.00 83 1007.8
20260507115424 27 188 0.0 0.0 0.00 0.00 0.00 83 1007.7
20260507114920 27 188 0.0 0.0 0.00 0.00 0.00 83 1007.8
20260507114417 27 188 0.0 0.0 0.00 0.00 0.00 83 1007.7
20260507113914 27 188 0.0 0.0 0.00 0.00 0.00 83 1007.6
20260507113411 27 182 0.0 0.0 0.00 0.00 0.00 82 1007.6
20260507112908 27 182 0.0 0.0 0.00 0.00 0.00 82 1007.7
20260507112406 27 179 0.0 0.0 0.00 0.00 0.00 82 1007.8
20260507111904 27 178 0.0 0.0 0.00 0.00 0.00 82 1007.7
20260507111400 27 178 0.0 0.0 0.00 0.00 0.00 81 1007.4
20260507110856 28 177 0.0 0.0 0.00 0.00 0.00 81 1007.4
20260507110352 28 150 0.0 0.0 0.00 0.00 0.00 81 1007.4
20260507105849 28 151 0.0 0.0 0.00 0.00 0.00 81 1007.4
20260507105346 28 140 0.0 0.0 0.00 0.00 0.00 80 1007.2
20260507104842 28 139 0.0 0.0 0.00 0.00 0.00 79 1007.1
20260507104339 28 139 0.0 0.0 0.00 0.00 0.00 79 1007.2
20260507103835 28 210 0.0 0.0 0.00 0.00 0.00 79 1007.4
20260507103332 28 210 0.0 0.0 0.00 0.00 0.00 78 1007.1
20260507102828 28 210 0.0 0.0 0.00 0.00 0.00 79 1007.1
20260507102325 28 203 0.0 0.0 0.00 0.00 0.00 77 1007.2
20260507101822 29 342 0.0 0.0 0.00 0.00 0.00 75 1007.1
20260507101321 28 238 0.0 0.0 0.00 0.00 0.00 78 1007.0
20260507100819 29 257 0.0 0.0 0.00 0.00 0.00 77 1007.0
20260507100317 29 261 0.0 0.0 0.00 0.00 0.00 77 1006.9
20260507095815 29 261 0.0 0.0 0.00 0.00 0.00 76 1007.1
20260507095311 30 262 0.0 0.0 0.00 0.00 0.00 75 1007.1
20260507094808 30 262 0.0 0.0 0.00 0.00 0.00 74 1007.0
20260507094305 30 189 0.0 0.0 0.00 0.00 0.00 75 1006.8
20260507093802 30 189 0.0 0.0 0.00 0.00 0.00 74 1006.9
20260507093300 31 188 0.0 0.0 0.00 0.00 0.00 73 1006.7
20260507092758 31 165 0.0 0.0 0.00 0.00 0.00 70 1006.7
20260507092254 31 165 0.0 0.0 0.00 0.00 0.00 69 1006.6
20260507091750 31 165 0.0 0.0 0.00 0.00 0.00 68 1006.6
20260507091247 31 179 0.0 4.8 0.00 0.00 0.00 68 1006.6
20260507090747 31 136 0.0 3.2 0.00 0.00 0.00 67 1006.4
20260507090244 32 149 0.0 0.0 0.00 0.00 0.00 67 1006.3
20260507085741 32 155 1.6 3.2 0.00 0.00 0.00 65 1006.4
20260507085238 33 156 3.2 4.8 0.00 0.00 0.00 64 1006.3
20260507084735 33 252 0.0 1.6 0.00 0.00 0.00 64 1006.3
20260507084232 33 214 0.0 0.0 0.00 0.00 0.00 64 1006.3
20260507083729 33 135 0.0 0.0 0.00 0.00 0.00 63 1006.5
20260507083226 32 230 1.6 3.2 0.00 0.00 0.00 67 1006.6
20260507082722 33 169 0.0 1.6 0.00 0.00 0.00 64 1006.3
20260507082218 33 140 3.2 3.2 0.00 0.00 0.00 62 1006.4
20260507081715 33 130 1.6 1.6 0.00 0.00 0.00 61 1006.2
20260507081211 33 159 0.0 1.6 0.00 0.00 0.00 61 1006.4
20260507080707 33 243 1.6 3.2 0.00 0.00 0.00 63 1006.2
20260507080204 33 127 3.2 6.4 0.00 0.00 0.00 64 1006.4
20260507075659 32 162 1.6 3.2 0.00 0.00 0.00 65 1006.3
20260507075155 32 134 0.0 3.2 0.00 0.00 0.00 69 1006.5
20260507074652 32 161 1.6 3.2 0.00 0.00 0.00 67 1006.5
20260507074151 32 213 0.0 1.6 0.00 0.00 0.00 69 1006.4
20260507073647 33 242 0.0 1.6 0.00 0.00 0.00 67 1006.6
20260507073143 33 149 0.0 1.6 0.00 0.00 0.00 67 1006.5
20260507072641 33 266 1.6 1.6 0.00 0.00 0.00 68 1006.5
20260507072138 33 154 0.0 1.6 0.00 0.00 0.00 66 1006.7
20260507071636 33 138 0.0 3.2 0.00 0.00 0.00 64 1006.5
20260507071132 33 157 0.0 1.6 0.00 0.00 0.00 65 1006.6
20260507070629 33 150 3.2 3.2 0.00 0.00 0.00 66 1006.5
20260507070126 34 131 1.6 3.2 0.00 0.00 0.00 62 1006.4
20260507065622 33 203 0.0 3.2 0.00 0.00 0.00 64 1006.6
20260507065119 33 248 1.6 1.6 0.00 0.00 0.00 64 1006.5
20260507064617 33 190 1.6 3.2 0.00 0.00 0.00 65 1006.8
20260507064115 34 289 0.0 4.8 0.00 0.00 0.00 65 1006.5
20260507063612 33 272 0.0 3.2 0.00 0.00 0.00 66 1006.7
20260507063109 33 183 0.0 1.6 0.00 0.00 0.00 65 1006.6
20260507062606 32 185 0.0 1.6 0.00 0.00 0.00 68 1006.8
20260507062104 33 189 1.6 4.8 0.00 0.00 0.00 66 1006.9
20260507061601 34 137 4.8 6.4 0.00 0.00 0.00 62 1006.9
20260507061059 33 167 0.0 4.8 0.00 0.00 0.00 66 1006.9
20260507060557 33 176 3.2 4.8 0.00 0.00 0.00 66 1007.0
20260507060053 33 129 3.2 4.8 0.00 0.00 0.00 67 1007.1
20260507055548 33 116 1.6 3.2 0.00 0.00 0.00 67 1007.1
20260507055045 33 201 0.0 3.2 0.00 0.00 0.00 66 1007.2
20260507054541 32 161 0.0 1.6 0.00 0.00 0.00 68 1007.4
20260507054038 33 101 1.6 4.8 0.00 0.00 0.00 65 1007.2
20260507053536 33 192 0.0 0.0 0.00 0.00 0.00 66 1007.1
20260507053034 33 123 0.0 1.6 0.00 0.00 0.00 66 1007.4
20260507052531 34 134 1.6 3.2 0.00 0.00 0.00 63 1007.4
20260507052028 34 154 1.6 4.8 0.00 0.00 0.00 62 1007.3
20260507051526 33 270 1.6 3.2 0.00 0.00 0.00 65 1007.8
20260507051022 32 229 0.0 4.8 0.00 0.00 0.00 67 1007.6
20260507050518 32 238 3.2 6.4 0.00 0.00 0.00 67 1007.9
20260507042103 33 158 0.0 4.8 0.00 0.00 0.00 63 1008.5
20260507041600 33 158 0.0 4.8 0.00 0.00 0.00 63 1008.5
20260507041058 34 239 1.6 4.8 0.00 0.00 0.00 64 1008.6
20260507040554 34 155 1.6 4.8 0.00 0.00 0.00 63 1008.8
20260507040050 34 264 1.6 3.2 0.00 0.00 0.00 63 1008.7
20260507035546 34 216 0.0 3.2 0.00 0.00 0.00 63 1008.9
20260507035043 35 209 3.2 3.2 0.00 0.00 0.00 62 1008.9
20260507034540 35 145 1.6 3.2 0.00 0.00 0.00 61 1009.0
20260507034038 34 165 0.0 4.8 0.00 0.00 0.00 64 1008.8
20260507033535 33 157 3.2 6.4 0.00 0.00 0.00 63 1008.9
20260507033033 33 267 0.0 3.2 0.00 0.00 0.00 64 1008.9
20260507032530 33 155 1.6 3.2 0.00 0.00 0.00 65 1009.2
20260507032026 34 135 3.2 4.8 0.00 0.00 0.00 64 1009.1
20260507031522 34 247 1.6 3.2 0.00 0.00 0.00 65 1009.2
20260507031019 33 153 0.0 3.2 0.00 0.00 0.00 65 1009.4
20260507030516 33 158 1.6 4.8 0.00 0.00 0.00 65 1009.3
20260507030014 33 232 1.6 1.6 0.00 0.00 0.00 67 1009.3
20260507025510 33 230 0.0 4.8 0.00 0.00 0.00 68 1009.4
20260507025008 33 171 3.2 3.2 0.00 0.00 0.00 66 1009.2
20260507024506 32 243 3.2 4.8 0.00 0.00 0.00 68 1009.1
20260507024001 33 133 3.2 6.4 0.00 0.00 0.00 66 1009.2
20260507023458 33 221 1.6 4.8 0.00 0.00 0.00 67 1009.0
20260507022955 33 250 3.2 4.8 0.00 0.00 0.00 67 1009.1
20260507022452 33 166 0.0 1.6 0.00 0.00 0.00 65 1009.2
20260507021948 32 163 1.6 4.8 0.00 0.00 0.00 66 1009.4
20260507021443 32 143 4.8 4.8 0.00 0.00 0.00 66 1009.6
20260507020941 32 167 0.0 6.4 0.00 0.00 0.00 67 1009.3
20260507020438 32 150 3.2 6.4 0.00 0.00 0.00 66 1009.6
20260507015935 32 188 0.0 4.8 0.00 0.00 0.00 67 1009.4
20260507015433 32 214 1.6 6.4 0.00 0.00 0.00 67 1009.6
20260507014930 32 207 0.0 4.8 0.00 0.00 0.00 67 1009.6
20260507014426 33 154 0.0 3.2 0.00 0.00 0.00 65 1009.6
20260507013922 32 149 3.2 4.8 0.00 0.00 0.00 66 1009.8
20260507013419 32 158 3.2 4.8 0.00 0.00 0.00 67 1009.8
20260507012917 32 220 1.6 3.2 0.00 0.00 0.00 69 1009.7
20260507012413 32 144 1.6 3.2 0.00 0.00 0.00 70 1009.8
20260507011905 32 151 3.2 6.4 0.00 0.00 0.00 70 1010.0
20260507011402 31 136 0.0 0.0 0.00 0.00 0.00 71 1009.9
20260507010901 31 129 1.6 3.2 0.00 0.00 0.00 72 1009.8
20260507010356 31 157 1.6 4.8 0.00 0.00 0.00 71 1009.8
20260507005854 31 224 0.0 4.8 0.00 0.00 0.00 72 1009.8
20260507005351 31 197 1.6 3.2 0.00 0.00 0.00 73 1009.7
20260507004848 31 138 1.6 3.2 0.00 0.00 0.00 73 1009.8
20260507004345 31 134 1.6 6.4 0.00 0.00 0.00 75 1009.8
20260507003842 31 160 3.2 4.8 0.00 0.00 0.00 74 1009.6
20260507003337 31 143 1.6 3.2 0.00 0.00 0.00 74 1009.6
20260507002832 31 133 3.2 4.8 0.00 0.00 0.00 75 1009.9
20260507002328 30 131 3.2 3.2 0.00 0.00 0.00 75 1009.7
20260507001826 30 191 0.0 1.6 0.00 0.00 0.00 76 1009.8
20260507001323 30 157 0.0 3.2 0.00 0.00 0.00 77 1009.8
20260507000819 30 207 0.0 0.0 0.00 0.00 0.00 76 1009.8
20260507000315 30 168 1.6 1.6 0.00 0.00 0.00 76 1009.8
20260506235812 30 234 0.0 1.6 0.00 0.00 0.00 77 1009.8
20260506235308 29 188 0.0 1.6 0.00 0.00 0.00 80 1009.8
20260506234804 28 134 1.6 1.6 0.00 0.00 0.00 81 1009.8
20260506234302 28 168 1.6 3.2 0.00 0.00 0.00 82 1009.9
20260506233800 26 206 0.0 0.0 0.00 0.00 0.00 89 1009.8
20260506233256 26 206 0.0 0.0 0.00 0.00 0.00 91 1009.8
20260506232753 26 206 0.0 0.0 0.00 0.00 0.00 91 1010.0
20260506232253 26 206 0.0 0.0 0.00 0.00 0.00 92 1009.7
20260506231750 26 206 0.0 0.0 0.00 0.00 0.00 92 1009.8
20260506231249 26 206 0.0 0.0 0.00 0.00 0.00 92 1009.5
20260506230745 25 206 0.0 0.0 0.00 0.00 0.00 92 1009.6
20260506230242 25 206 0.0 0.0 0.00 0.00 0.00 93 1009.4
20260506225739 25 206 0.0 0.0 0.00 0.00 0.00 93 1009.5
20260506225236 25 206 0.0 0.0 0.00 0.00 0.00 93 1009.4
20260506224732 25 206 0.0 0.0 0.00 0.00 0.00 93 1009.2
20260506224230 25 206 0.0 0.0 0.00 0.00 0.00 93 1009.0
20260506223726 25 206 0.0 0.0 0.00 0.00 0.00 93 1009.2
20260506223221 25 206 0.0 0.0 0.00 0.00 0.00 93 1009.2
20260506222719 25 206 0.0 0.0 0.00 0.00 0.00 93 1009.2
20260506222214 25 206 0.0 0.0 0.00 0.00 0.00 93 1009.1
20260506221712 25 206 0.0 0.0 0.00 0.00 0.00 93 1009.2
20260506221210 25 206 0.0 0.0 0.00 0.00 0.00 93 1009.0
20260506220707 25 206 0.0 0.0 0.00 0.00 0.00 94 1009.0
20260506220202 25 206 0.0 0.0 0.00 0.00 0.00 94 1008.7
20260506215659 25 206 0.0 0.0 0.00 0.00 0.00 94 1008.8
20260506215154 25 206 0.0 0.0 0.00 0.00 0.00 94 1008.7
20260506214651 25 206 0.0 0.0 0.00 0.00 0.00 94 1008.8
20260506214149 25 206 0.0 0.0 0.00 0.00 0.00 94 1008.6
20260506213647 25 206 0.0 0.0 0.00 0.00 0.00 94 1008.5
20260506213144 25 206 0.0 0.0 0.00 0.00 0.00 94 1008.6
20260506212641 25 206 0.0 0.0 0.00 0.00 0.00 94 1008.5
20260506212135 25 206 0.0 0.0 0.00 0.00 0.00 94 1008.6
20260506211632 25 206 0.0 0.0 0.00 0.00 0.00 94 1008.5
20260506211129 25 206 0.0 0.0 0.00 0.00 0.00 94 1008.4
20260506210627 25 206 0.0 0.0 0.00 0.00 0.00 94 1008.3
20260506210123 25 206 0.0 0.0 0.00 0.00 0.00 94 1008.5
20260506205620 25 206 0.0 0.0 0.00 0.00 0.00 94 1008.3
20260506205120 25 206 0.0 0.0 0.00 0.00 0.00 94 1008.5
20260506204618 25 206 0.0 0.0 0.00 0.00 0.00 94 1008.3
20260506204115 25 206 0.0 0.0 0.00 0.00 0.00 94 1008.3
20260506203613 25 206 0.0 0.0 0.00 0.00 0.00 94 1008.4
20260506203109 25 206 0.0 0.0 0.00 0.00 0.00 94 1008.1
20260506202607 25 206 0.0 0.0 0.00 0.00 0.00 94 1008.2
20260506202103 25 206 0.0 0.0 0.00 0.00 0.00 94 1008.1
20260506201601 25 205 0.0 0.0 0.00 0.00 0.00 94 1008.1
20260506201057 25 205 0.0 0.0 0.00 0.00 0.00 94 1008.0
20260506200554 25 206 0.0 0.0 0.00 0.00 0.00 94 1008.1
20260506200050 25 206 0.0 0.0 0.00 0.00 0.00 94 1008.0
20260506195547 25 205 0.0 0.0 0.00 0.00 0.00 94 1007.8
20260506195043 25 206 0.0 0.0 0.00 0.00 0.00 94 1008.0
20260506194541 25 206 0.0 0.0 0.00 0.00 0.00 94 1007.9
20260506194037 25 206 0.0 0.0 0.00 0.00 0.00 94 1008.0
20260506193535 25 206 0.0 0.0 0.00 0.00 0.00 94 1007.8
20260506193032 25 206 0.0 0.0 0.00 0.00 0.00 94 1007.8
20260506192529 25 206 0.0 0.0 0.00 0.00 0.00 94 1007.9
20260506192024 25 206 0.0 0.0 0.00 0.00 0.00 94 1007.8
20260506191521 25 206 0.0 0.0 0.00 0.00 0.00 93 1007.6
20260506191017 25 206 0.0 0.0 0.00 0.00 0.00 93 1007.7
20260506190515 25 206 0.0 0.0 0.00 0.00 0.00 93 1007.9
20260506190012 25 206 0.0 0.0 0.00 0.00 0.00 93 1007.9
20260506185509 25 206 0.0 0.0 0.00 0.00 0.00 93 1007.8
20260506185005 25 206 0.0 0.0 0.00 0.00 0.00 93 1007.8
20260506184503 25 206 0.0 0.0 0.00 0.00 0.00 93 1007.8
20260506184000 25 206 0.0 0.0 0.00 0.00 0.00 92 1007.8
20260506183455 25 206 0.0 0.0 0.00 0.00 0.00 92 1007.9
20260506182953 25 206 0.0 0.0 0.00 0.00 0.00 91 1007.7
20260506182450 25 206 0.0 0.0 0.00 0.00 0.00 91 1007.8
20260506181947 25 206 0.0 0.0 0.00 0.00 0.00 90 1007.9
20260506181445 25 206 0.0 0.0 0.00 0.00 0.00 90 1007.7
20260506180941 25 206 0.0 0.0 0.00 0.00 0.00 90 1007.8
20260506180438 25 206 0.0 0.0 0.00 0.00 0.00 90 1007.7
20260506175935 25 206 0.0 0.0 0.00 0.00 0.00 90 1007.8
20260506175431 25 206 0.0 0.0 0.00 0.00 0.00 90 1007.9
20260506174928 25 206 0.0 0.0 0.00 0.00 0.00 89 1008.0
20260506174426 25 206 0.0 0.0 0.00 0.00 0.00 89 1007.9
20260506173923 25 206 0.0 0.0 0.00 0.00 0.00 89 1008.0
20260506173419 25 206 0.0 0.0 0.00 0.00 0.00 89 1008.2
20260506172917 25 206 0.0 0.0 0.00 0.00 0.00 89 1008.0
20260506172413 25 206 0.0 0.0 0.00 0.00 0.00 89 1008.1
20260506171910 25 206 0.0 0.0 0.00 0.00 0.00 89 1008.2
20260506171408 25 206 0.0 0.0 0.00 0.00 0.00 89 1008.3
20260506170906 25 206 0.0 0.0 0.00 0.00 0.00 89 1008.1
20260506170402 26 206 0.0 0.0 0.00 0.00 0.00 89 1008.3